Regional Weather Roundup
Issued by NWS

Home | Current Version | Previous Version | Graphics & Text | Print | Product List | Glossary On
Versions: 1 2 3 4 5 6 7 8 9 10 11 12 13 14 15 16 17 18 19 20 21 22 23 24 25 26 27 28 29 30 31 32 33 34 35 36 37 38 39 40 41 42 43 44 45 46 47 48 49 50
000
ASUS44 KMEG 210810
RWRTN
TENNESSEE HOURLY STATE WEATHER ROUNDUP
NATIONAL WEATHER SERVICE MEMPHIS TN
300 AM CDT FRI JUL 21 2017

TNZ002-004-019-021-049-052-054-088>092-210900-
WEST TENNESSEE

CITY           SKY/WX    TMP DP  RH WIND       PRES   REMARKS
MEMPHIS INTL   PTCLDY    80  77  90 SW3       30.01F
JACKSON        CLEAR     74  73  97 CALM      30.02S
SOMERVILLE       N/A     75  75 100 CALM      30.01S
COVINGTON      CLEAR     75  73  94 CALM      30.00F
UNION CITY       N/A     75  75 100 CALM      29.99F
BOLIVAR        CLEAR     73  73 100 CALM      30.01F
PARIS          CLEAR     73  72  94 CALM      30.01S
HUNTINGDON     PTCLDY    75  75 100 CALM      30.01S FOG
SELMER         CLEAR     73  72  94 CALM      30.02F
SAVANNAH       CLEAR     73  73 100 CALM      30.02S FOG
$$

TNZ008-025-027-028-033-062-065-066-210900-
NORTH MIDDLE TENNESSEE

CITY           SKY/WX    TMP DP  RH WIND       PRES   REMARKS
NASHVILLE      PTCLDY    77  73  87 CALM      30.03F
PORTLAND       CLEAR     73  73 100 S3        30.03S
CLARKSVILLE    FOG       73  72  96 CALM      30.02S VSB 1/4
SMYRNA         CLEAR     74  73  97 CALM      30.04S
COOKEVILLE     FOG       72  70  94 CALM      30.05S VSB 1/2
GALLATIN       CLEAR     75  73  94 CALM      30.05S
CROSSVILLE     CLEAR     69  68  96 CALM      30.11F FOG
$$

TNZ061-075-076-078-094-096-097-210900-
SOUTH MIDDLE TENNESSEE

CITY           SKY/WX    TMP DP  RH WIND       PRES   REMARKS
FAYETTEVILLE   CLEAR     75  73  94 CALM      30.04S
TULLAHOMA      CLEAR     73  72  94 CALM      30.06F
WINCHESTER     CLEAR     72  72 100 CALM      30.05F
MCMINNVILLE    MOCLDY    73  73 100 CALM      30.06S VSB 1
COLUMBIA       MOCLDY    73  73 100 CALM      30.02S
SHELBYVILLE    CLEAR     73  73 100 CALM      30.04S FOG
$$

TNZ017-018-042-046-047-210900-
NORTHEAST TENNESSEE

CITY           SKY/WX    TMP DP  RH WIND       PRES   REMARKS
TRI CITIES     CLEAR     69  67  93 CALM      30.09S
ELIZABETHTON   MOCLDY    68  64  88 CALM      30.09F
$$

TNZ012-013-036-069-073-074-210900-
CENTRAL EAST TENNESSEE

CITY           SKY/WX    TMP DP  RH WIND       PRES   REMARKS
KNOXVILLE      CLEAR     73  69  87 NE3       30.04F
OAK RIDGE      PTCLDY    74  71  91 CALM      30.06F
DOWNTOWN KNOXV CLEAR     72  72 100 CALM      30.04F FOG
GATLINBURG     CLEAR     70  66  88 CALM      30.05S
MORRISTOWN     PTCLDY    72  68  88 CALM      30.06S
JACKSBORO      PTCLDY    72  70  94 CALM      30.09F FOG
$$

TNZ083-085-099-210900-
SOUTHEAST TENNESSEE

CITY           SKY/WX    TMP DP  RH WIND       PRES   REMARKS
CHATTANOOGA    CLEAR     77  73  87 CALM      30.03F
$$

SKY/WX REPORTED AS FAIR MEANS FEW OR NO CLOUDS BELOW
12 THOUSAND FEET.





USA.gov is the U.S. government's official web portal to all federal, state and local government web resources and services.